RH
65 62 60 63 88 91 91 84 83 85 88 86 83 80 76 82 89 93 92 89 89 89 87 82 73 82 88 84 79 80 84 81 89 86 84 72 76 80 79 75 72 80 80
65 66 71 77 90 89 85 83 84 90 86 86 85 84 83 87 93 94 94 93 89 91 88 82 84 72 90 92 90 87 85 88 85 89 89 85 86 85 86 81 65 60 74
68 72 74 79 92 89 89 88 90 91 90 88 90 96 95 96 96 94 94 94 89 87 88 84 86 85 92 94 92 94 95 89 87 88 94 88 87 87 88 87 77 70 59
75 75 80 84 87 93 92 92 94 93 94 96 98 98 98 97 96 96 96 96 94 91 89 86 87 87 93 95 94 97 95 92 90 90 92 88 82 82 82 92 90 75 66
78 79 85 82 95 93 93 94 95 94 96 97 99 99 98 98 97 97 97 96 96 96 94 90 91 90 89 91 95 97 95 92 91 90 90 89 89 91 90 86 81 79 84
82 93 91 98 98 96 94 96 96 99 99 99 99 98 99 98 98 96 95 96 95 96 99 96 96 95 96 97 98 95 88 89 90 89 87 90 92 89 88 88 87 83 87
82 98 100 100 100 100 98 99 99 100 99 100 100 100 100 99 97 95 94 97 98 98 98 98 98 97 97 94 94 92 93 87 80 78 84 86 90 89 84 86 84 85 96
82 84 94 99 100 100 100 100 100 100 100 100 100 100 100 100 99 99 100 100 100 100 100 99 98 99 95 89 90 91 95 96 94 92 87 90 88 87 82 78 78 88 89
88 91 94 96 100 100 100 100 100 100 100 100 100 100 100 100 100 100 98 99 99 99 100 100 100 100 93 89 93 96 97 98 92 91 91 90 88 86 82 81 84 80 99
94 95 96 96 98 100 100 100 100 100 99 99 99 99 100 99 100 100 99 98 98 98 99 100 97 98 94 90 91 92 96 98 97 97 96 94 94 94 91 89 83 83 98
96 96 96 96 99 100 100 100 99 99 99 99 99 99 99 98 100 100 100 98 97 98 98 99 99 99 97 92 86 89 90 94 95 93 94 96 97 98 99 99 98 89 97
98 99 99 99 100 100 100 100 99 99 98 98 98 98 99 99 100 100 100 98 99 96 98 98 98 97 99 93 87 85 83 92 93 94 93 98 98 99 100 98 97 97 97
99 99 99 100 100 100 99 99 99 99 98 98 97 97 99 99 99 100 100 100 98 97 97 98 95 89 91 89 87 83 90 91 93 92 94 99 99 98 97 95 92 90 90
99 99 99 99 100 100 100 100 100 99 99 97 97 97 98 99 99 99 99 99 99 97 93 90 93 95 92 91 89 91 95 92 91 93 95 98 97 94 94 94 89 90 84
99 99 99 99 99 99 99 100 99 100 99 97 96 93 95 98 99 97 95 97 96 92 92 93 95 95 98 98 96 97 97 95 94 97 96 96 93 86 86 89 81 84 92
98 98 99 99 99 99 99 99 99 98 98 99 99 96 98 97 98 99 97 89 88 86 89 94 96 96 96 96 96 97 98 95 96 95 95 93 90 88 86 85 82 86 90
98 99 99 99 99 99 99 98 98 100 99 99 99 100 99 98 100 94 91 89 85 85 92 93 94 94 94 90 90 91 94 94 94 95 92 91 89 84 84 82 83 83 80
98 99 99 99 99 100 99 99 99 98 98 99 100 98 99 98 91 92 92 91 97 95 93 94 94 93 89 87 86 87 94 93 95 96 94 91 92 90 92 83 78 88 85
94 97 99 99 99 99 99 99 98 98 99 99 99 99 99 99 99 97 92 94 97 97 97 96 92 93 87 84 91 92 94 95 95 96 95 94 94 92 89 86 82 85 84
99 98 94 99 98 98 98 98 98 98 98 98 98 98 98 97 98 98 98 98 98 98 98 97 97 96 95 95 95 96 96 95 95 97 98 98 98 96 96 94 91 89 84
98 97 97 99 98 96 93 97 98 97 96 97 98 98 96 93 97 97 97 98 98 98 98 98 98 97 97 97 98 98 98 98 97 97 98 98 98 98 98 95 94 88 78
97 97 98 99 99 99 99 98 98 96 96 94 97 97 95 95 98 97 98 98 98 99 98 98 99 98 97 97 97 97 97 97 97 97 98 98 98 97 93 93 95 94 88
98 95 93 97 98 98 98 96 96 97 96 93 95 98 97 98 99 98 99 99 99 99 99 98 98 98 99 98 98 97 97 98 97 96 95 96 95 94 94 95 94 96 96
99 98 98 98 98 98 98 97 96 95 96 97 98 98 98 97 98 98 98 98 98 99 99 99 98 98 98 98 98 98 98 97 96 94 94 95 96 96 96 97 97 97 97
98 99 99 99 99 98 97 97 96 96 96 97 98 99 99 98 97 98 98 98 98 98 99 98 98 97 96 97 98 98 98 99 98 97 97 96 95 95 96 96 98 97 97
99 98 99 98 98 98 99 98 98 97 98 97 98 98 98 98 98 98 98 98 98 98 98 97 97 97 97 97 97 97 97 97 97 96 96 96 97 96 96 95 96 96 96
Wind_Speed
8 11 15 18 9 7 8 14 17 18 16 20 23 26 27 30 29 25 24 23 24 21 19 20 17 15 10 10 12 11 8 8 9 8 4 12 15 15 13 8 9 5 6
10 14 16 14 8 8 12 16 16 15 17 22 25 27 29 28 22 20 21 19 23 21 20 20 18 12 15 13 11 11 8 7 10 16 11 9 13 14 13 11 9 9 5
13 16 18 17 11 12 13 15 14 15 19 21 24 23 14 15 17 18 17 18 19 20 20 20 18 17 11 10 10 10 9 9 13 12 9 8 10 12 12 10 9 7 8
13 17 17 16 15 12 14 14 12 13 18 17 10 2 6 9 10 13 15 15 16 15 16 18 17 17 16 14 12 12 11 11 12 11 11 11 11 10 9 10 8 6 8
15 18 18 17 10 12 13 12 9 12 12 8 5 4 7 10 9 12 13 13 15 16 15 15 14 15 16 12 8 11 12 11 11 12 11 11 10 11 14 8 9 7 3
18 18 16 10 11 12 13 10 9 7 6 3 3 4 4 5 14 17 18 14 15 17 17 16 16 19 16 16 11 13 15 16 13 11 10 14 14 12 9 9 8 9 5
17 17 13 11 11 12 9 5 6 5 1 3 5 6 7 8 15 18 19 13 14 15 17 16 13 10 14 13 18 16 13 10 15 13 14 14 13 14 12 11 8 5 3
17 17 13 13 13 7 2 1 3 2 2 3 4 6 8 8 18 19 19 12 11 12 14 15 15 16 14 14 14 11 10 8 6 5 10 9 7 11 12 9 10 5 5
17 15 14 15 13 5 5 4 2 2 3 3 5 8 10 9 19 21 17 13 13 13 11 13 14 13 19 21 13 12 10 9 10 15 16 16 16 15 10 9 8 9 3
16 17 15 15 8 4 4 1 1 2 4 5 6 7 13 10 16 17 15 10 13 10 10 12 16 13 19 20 13 13 11 7 11 10 10 12 13 12 11 5 9 9 4
15 15 14 13 3 2 2 2 4 5 6 7 8 7 9 11 13 18 18 10 10 9 8 8 7 17 17 17 16 9 8 9 8 10 9 7 6 7 5 4 4 7 4
13 13 11 6 2 1 4 4 5 6 8 8 9 8 7 9 15 16 18 17 15 11 8 7 9 17 18 18 12 20 21 11 7 7 7 5 6 5 4 5 5 4 4
11 10 8 6 3 1 4 6 5 6 6 7 7 7 7 6 7 17 18 17 17 9 7 12 20 19 18 14 21 22 13 8 7 7 7 3 3 5 6 5 6 8 9
9 9 6 5 3 3 3 3 4 5 6 6 7 7 7 7 7 7 8 9 14 11 15 12 11 11 11 11 12 10 5 6 7 7 6 6 7 5 5 3 4 4 4
7 6 6 4 3 4 4 3 4 4 4 7 6 7 9 8 7 11 11 9 9 11 13 9 8 7 8 6 6 4 4 5 6 4 7 7 7 6 5 4 5 5 3
7 5 4 3 3 3 4 6 11 12 13 14 11 8 5 11 18 17 18 20 22 20 9 9 7 7 7 7 7 3 2 5 4 6 7 7 7 7 7 6 6 5 4
6 5 4 4 3 3 2 5 6 8 12 15 15 14 14 16 17 20 23 24 21 12 8 7 7 7 6 6 6 5 5 3 3 5 7 7 6 6 7 6 6 6 4
6 7 3 3 3 3 3 4 5 6 6 4 9 11 16 18 19 22 23 18 9 6 6 7 7 7 8 7 7 6 4 4 2 3 6 6 5 5 3 6 7 4 3
5 4 4 4 3 4 3 4 5 6 6 6 6 7 11 16 16 20 14 5 5 6 5 5 6 6 7 7 6 6 6 5 4 4 4 3 4 3 4 4 4 4 4
4 5 5 3 4 4 4 5 5 5 6 5 6 6 7 9 7 5 5 5 4 4 4 6 5 5 6 6 6 6 6 6 5 4 3 3 4 4 2 2 3 2 3
3 3 5 4 4 4 5 5 4 5 6 6 6 7 9 8 6 6 6 4 5 5 4 4 3 5 5 5 5 4 4 4 5 5 4 3 3 3 3 2 2 3 3
2 3 3 4 4 4 4 4 5 7 7 8 7 8 10 6 5 6 5 5 4 4 3 4 4 4 4 4 5 5 5 5 4 4 3 3 3 4 3 3 2 2 2
2 3 3 4 4 5 5 5 6 5 7 8 7 5 5 4 4 4 4 4 3 4 4 4 4 4 3 4 3 4 4 4 4 5 5 5 4 4 3 3 3 3 2
3 4 4 4 4 4 5 5 5 7 7 7 5 6 6 5 5 6 5 5 4 4 3 3 4 5 4 4 3 2 3 3 3 5 7 5 5 5 3 3 4 3 3
4 4 4 5 4 4 5 5 5 5 6 5 5 5 4 6 6 6 5 5 4 4 4 4 4 6 7 8 6 6 6 7 5 6 5 6 6 6 4 3 3 3 4
4 4 4 4 5 5 4 4 5 5 5 6 5 5 5 6 5 5 4 5 5 5 6 5 7 9 8 7 7 9 9 9 7 8 5 5 5 4 4 5 7 4 4
Wind_Direction
295 299 301 289 256 250 263 279 277 275 270 271 266 261 253 232 218 205 200 192 186 173 172 176 175 153 144 147 153 149 144 128 148 132 142 145 133 140 142 159 149 160 142
300 300 302 289 270 281 289 286 285 276 276 272 268 266 259 227 203 196 186 185 182 171 164 163 156 155 141 138 154 157 148 146 128 144 145 159 140 138 147 155 160 164 158
304 310 305 299 285 285 287 287 280 280 280 277 277 268 225 186 188 184 180 178 177 170 161 158 152 146 132 129 137 136 137 140 145 148 145 146 145 149 157 159 170 159 172
309 307 296 290 282 283 288 283 278 281 283 282 273 283 145 143 173 175 165 171 157 151 151 150 142 143 139 132 135 124 136 131 138 143 144 152 155 162 158 168 164 176 168
313 309 296 287 274 286 290 280 283 283 284 294 283 175 145 140 155 152 147 150 145 133 131 129 127 129 136 136 146 146 144 143 144 143 141 151 161 166 181 161 167 178 156
318 306 300 287 283 297 291 297 297 277 294 327 22 36 95 135 143 143 142 143 140 140 130 127 122 131 144 157 149 160 163 147 152 140 161 169 172 171 174 171 159 162 173
312 302 297 292 297 289 294 293 290 276 357 56 59 65 63 86 115 128 124 127 137 139 135 132 139 140 138 128 109 100 91 127 150 158 171 180 166 172 168 170 181 156 152
308 302 310 315 301 287 278 347 297 332 53 97 98 98 102 112 128 123 119 120 119 123 128 135 134 147 138 128 111 98 81 75 110 139 158 159 147 159 173 179 161 115 77
303 305 314 307 299 262 280 267 270 141 99 98 112 118 121 125 128 124 116 118 118 114 112 126 130 124 131 124 113 107 96 82 88 123 125 130 141 147 150 132 150 144 117
314 312 310 298 283 257 249 169 48 52 91 104 104 114 124 125 125 121 119 118 116 114 108 113 118 131 133 132 129 133 129 135 120 100 97 86 93 99 93 135 155 154 132
309 305 306 303 258 224 136 90 96 96 95 96 97 95 109 118 115 114 114 111 112 108 109 113 117 137 128 132 137 139 131 131 104 112 109 100 86 87 81 70 91 150 133
307 313 317 325 347 134 129 107 109 107 103 99 101 92 93 101 109 105 108 111 113 112 115 115 125 133 131 129 112 124 129 112 108 104 112 106 109 105 82 84 70 74 63
317 324 325 326 357 111 131 122 117 114 114 114 113 111 105 100 106 107 107 106 108 106 117 121 130 128 118 112 126 133 128 127 129 127 133 121 107 113 106 88 75 78 74
326 335 340 345 16 55 72 106 116 118 121 117 121 120 121 116 120 119 119 108 104 110 117 113 100 94 95 113 125 129 127 137 139 137 135 118 120 130 130 123 127 126 97
325 341 353 355 21 70 57 67 100 73 115 133 133 135 137 129 134 130 129 127 127 128 122 113 112 113 115 117 123 118 122 130 140 129 142 142 145 148 152 155 147 156 134
342 358 357 1 16 50 90 78 74 99 100 99 107 125 108 124 133 133 132 131 131 134 123 127 128 131 133 136 144 131 86 146 147 138 149 154 161 166 163 171 168 173 157
353 347 352 15 28 28 64 102 99 74 106 118 117 122 130 136 134 133 131 135 136 128 127 139 139 144 144 143 151 162 167 157 127 139 157 165 162 164 172 177 185 180 182
360 6 0 13 32 43 46 69 89 105 108 102 113 129 139 139 135 135 135 131 137 117 130 140 148 150 154 157 163 166 146 152 127 135 150 154 158 160 155 175 178 153 145
12 9 11 16 28 58 62 71 83 89 95 99 100 105 135 133 132 136 131 128 124 129 137 136 148 146 151 153 148 151 151 152 152 140 144 149 152 134 167 167 156 149 144
358 25 52 30 57 67 71 73 80 90 91 93 101 104 117 119 119 99 95 102 93 97 107 122 129 124 124 132 139 144 151 163 163 148 137 139 147 149 122 99 133 152 156
353 15 29 45 62 77 86 87 85 86 95 92 90 94 102 112 112 111 111 105 109 115 107 106 109 120 126 131 129 135 137 136 144 133 129 132 140 148 131 147 162 150 140
10 30 47 52 50 44 62 75 77 89 99 109 109 103 103 104 102 116 119 121 116 112 114 116 111 116 135 131 126 135 139 140 137 137 146 139 159 145 142 117 124 125 132
38 56 46 62 62 67 72 72 83 83 101 115 120 119 117 111 102 107 98 105 104 99 99 107 114 122 111 130 134 143 147 152 158 171 170 159 155 140 118 101 101 81 95
47 60 62 59 66 68 81 90 87 92 103 107 102 98 108 116 112 110 107 104 103 94 79 97 110 111 109 108 115 118 126 133 131 140 128 138 147 138 124 129 131 123 127
80 72 66 73 63 68 82 87 97 100 100 100 93 89 84 94 99 98 103 98 92 90 87 89 95 108 106 108 106 110 115 108 108 117 121 125 131 132 126 117 127 114 118
86 77 76 83 86 80 70 77 93 93 86 92 100 98 98 96 97 98 93 95 92 90 91 89 102 101 95 88 94 93 88 89 89 92 97 107 117 113 120 120 119 119 137